EW2849 Weather Reports


Display with metric or nautical units.
time (UTC)temp
F
wind
direction
speed
MPH
gust
MPH
rain 1hr
in
rain 24hr
in
rain mn
in
humidity
%
barometer
mb
20260503023959 59 293 14.0 15.0 0.00 0.00 0.00 100 1008.9
20260503022758 59 293 14.0 15.0 0.00 0.00 0.00 100 1008.9
20260503021616 59 293 14.0 15.0 0.00 0.00 0.00 100 1008.9
20260503020356 59 293 14.0 15.0 0.00 0.00 0.00 100 1012.2
20260503015154 59 293 14.0 15.0 0.00 0.00 0.00 100 1012.2
20260503013953 59 293 14.0 15.0 0.00 0.00 0.00 100 1012.2
20260503012753 59 293 14.0 15.0 0.00 0.00 0.00 100 1012.2
20260503011551 59 293 14.0 15.0 0.00 0.00 0.00 100 1012.2
20260503010350 59 293 14.0 15.0 0.00 0.00 0.00 100 1012.2
20260503005149 59 293 14.0 15.0 0.00 0.00 0.00 100 1011.4
20260503003947 59 293 14.0 15.0 0.00 0.00 0.00 100 1012.2
20260503002747 59 293 14.0 15.0 0.00 0.00 0.00 100 1012.2
20260503001546 59 293 14.0 15.0 0.00 0.00 0.00 100 1012.2
20260503000344 59 293 14.0 15.0 0.00 0.00 0.00 100 1012.2
20260502235143 59 293 14.0 15.0 0.00 0.00 0.00 100 1012.2
20260502234002 59 293 14.0 15.0 0.00 0.00 0.00 100 1012.2
20260502232741 59 293 14.0 15.0 0.00 0.00 0.00 100 1012.2
20260502231541 59 293 14.0 15.0 0.00 0.00 0.00 100 1012.2
20260502230339 59 293 14.0 15.0 0.00 0.00 0.00 100 1012.2
20260502225137 59 293 14.0 15.0 0.00 0.00 0.00 100 1012.2
20260502223936 59 293 14.0 15.0 0.00 0.00 0.00 100 1012.2
20260502222735 59 293 14.0 15.0 0.00 0.00 0.00 100 1012.2
20260502221534 59 293 14.0 15.0 0.00 0.00 0.00 100 1012.2
20260502220353 59 293 14.0 15.0 0.00 0.00 0.00 100 1012.2
20260502215721 59 293 14.0 15.0 0.00 0.00 0.00 99 1012.2
20260502214520 59 293 14.0 15.0 0.00 0.00 0.00 99 1011.4
20260502213319 59 293 14.0 15.0 0.00 0.00 0.00 99 1012.2
20260502212118 59 293 14.0 15.0 0.00 0.00 0.00 98 1012.2
20260502210917 60 293 14.0 15.0 0.00 0.00 0.00 98 1012.2
20260502205716 60 293 14.0 15.0 0.00 0.00 0.00 97 1012.2
20260502204614 60 293 14.0 15.0 0.00 0.00 0.00 97 1012.2
20260502203414 60 293 14.0 15.0 0.00 0.00 0.00 96 1012.2
20260502202213 60 293 14.0 15.0 0.00 0.00 0.00 94 1012.2
20260502201012 61 293 14.0 15.0 0.00 0.00 0.00 93 1012.2
20260502195811 61 293 14.0 15.0 0.00 0.00 0.00 91 1012.2
20260502194609 64 276 14.0 15.0 0.00 0.00 0.00 86 1012.2
20260502193408 70 127 5.0 11.0 0.00 0.00 0.00 79 1012.2
20260502192207 70 45 5.0 6.0 0.00 0.00 0.00 76 1012.2
20260502191006 71 45 4.0 6.0 0.00 0.00 0.00 74 1012.2
20260502185805 71 45 4.0 5.0 0.00 0.00 0.00 73 1012.2
20260502184604 71 45 3.0 4.0 0.00 0.00 0.00 72 1012.2
20260502183403 72 45 4.0 5.0 0.00 0.00 0.00 70 1012.2
20260502182202 72 45 2.0 3.0 0.00 0.00 0.00 69 1012.2
20260502181020 73 45 3.0 5.0 0.00 0.00 0.00 68 1012.2
20260502163351 75 75 5.0 9.0 0.00 0.00 0.00 66 1012.2
20260502162210 76 74 8.0 11.0 0.00 0.00 0.00 64 1012.2
20260502160950 77 123 6.0 9.0 0.00 0.00 0.00 60 1012.2
20260502152144 77 173 4.0 6.0 0.00 0.00 0.00 59 1012.2
20260502151003 78 184 4.0 7.0 0.00 0.00 0.00 58 1015.6
20260502123328 78 209 5.0 7.0 0.00 0.00 0.00 61 1015.6
20260502122127 78 225 7.0 12.0 0.00 0.00 0.00 63 1015.6
20260502120925 78 248 5.0 7.0 0.00 0.00 0.00 64 1015.6
20260502115724 77 252 5.0 9.0 0.00 0.00 0.00 66 1015.6
20260502114523 76 225 5.0 6.0 0.00 0.00 0.00 66 1015.6
20260502113322 75 270 6.0 9.0 0.00 0.00 0.00 68 1015.6
20260502112120 75 225 6.0 7.0 0.00 0.00 0.00 68 1015.6
20260502110919 75 228 3.0 7.0 0.00 0.00 0.00 67 1015.6
20260502105718 74 265 7.0 9.0 0.00 0.00 0.00 68 1015.6
20260502104537 74 270 8.0 11.0 0.00 0.00 0.00 68 1015.6
20260502103316 74 262 6.0 10.0 0.00 0.00 0.00 69 1015.6
20260502102215 74 270 7.0 8.0 0.00 0.00 0.00 67 1016.5
20260502101013 74 234 9.0 11.0 0.00 0.00 0.00 67 1019.0
20260502091028 71 128 4.0 9.0 0.00 0.00 0.00 70 1019.0
20260502070957 64 228 2.0 3.0 0.00 0.00 0.00 78 1019.0
20260502065816 63 247 3.0 4.0 0.00 0.00 0.00 78 1019.0
20260502064555 61 175 2.0 3.0 0.00 0.00 0.00 79 1019.0
20260502063413 61 175 2.0 3.0 0.00 0.00 0.00 78 1019.0
20260502062152 60 218 1.0 2.0 0.00 0.00 0.00 79 1019.0
20260502060951 59 229 2.0 5.0 0.00 0.00 0.00 79 1019.0
20260502055750 59 73 1.0 2.0 0.00 0.00 0.00 78 1019.0
20260502054549 58 68 3.0 3.0 0.00 0.00 0.00 78 1019.0
20260502053348 58 0.0 0.0 0.00 0.00 0.00 76 1018.2
20260502052206 58 262 1.0 3.0 0.00 0.00 0.00 76 1019.0
20260502050945 58 293 2.0 5.0 0.00 0.00 0.00 75 1019.0
20260502045744 58 297 2.0 4.0 0.00 0.00 0.00 73 1019.0
20260502044543 58 293 1.0 3.0 0.00 0.00 0.00 71 1019.0
20260502043342 59 262 3.0 5.0 0.00 0.00 0.00 70 1019.0
20260502042141 58 274 7.0 9.0 0.00 0.00 0.00 70 1019.0
20260502040959 57 270 6.0 9.0 0.00 0.00 0.00 69 1019.0
20260502035758 56 243 3.0 5.0 0.00 0.00 0.00 69 1019.0
20260502034537 56 198 2.0 3.0 0.00 0.00 0.00 69 1019.0
20260502033356 55 163 3.0 5.0 0.00 0.00 0.00 69 1019.0
20260502032135 55 72 0.0 1.0 0.00 0.00 0.00 69 1019.0
20260502030934 55 85 1.0 2.0 0.00 0.00 0.00 70 1019.0
20260502025732 55 90 1.0 1.0 0.00 0.00 0.00 69 1019.0
20260502024612 55 65 1.0 2.0 0.00 0.00 0.00 70 1019.0